Vertical_Velocity
4 10 5 13 1 -1 -10 3 9 -8 6 -3 -4 -1 -1 -0 2 3 -2 2 6 5 -0 1 -4 -3 6 3 9 -1 -0 -5 0 -2 -7 1 -4 -8 -6 -5 -6 -5 -6 -3
-0 -2 12 3 15 -3 6 10 5 -6 8 7 3 -5 -0 -2 -2 4 3 4 2 -3 3 26 8 4 4 10 9 7 -1 -3 -2 -1 -4 -7 -5 -7 -10 -2 -3 -5 -2 -5
-8 3 -14 -4 18 13 9 17 15 -7 -7 16 -9 -7 2 10 -2 4 6 -1 -7 -3 7 -3 -5 -3 -4 0 3 1 1 4 -2 2 -5 -3 -3 -3 -8 -1 -4 -2 -3 -3
-6 0 -7 10 8 -6 7 21 16 -0 1 1 25 6 -2 9 10 12 5 2 0 3 13 -0 -3 -1 0 37 10 3 -3 -2 -1 -3 -1 3 -3 -6 0 -1 -3 -2 -3 -1
5 5 -6 18 11 4 -24 13 -17 2 24 7 6 24 16 8 12 4 7 6 5 6 -0 -5 -3 -0 -3 4 4 10 3 2 -3 -3 -1 0 -0 -5 -4 -4 -0 -1 -2 -1
-2 -4 -11 -3 1 -14 -3 -11 -1 -16 6 -11 4 7 16 1 -0 9 8 3 -3 -3 -1 1 -3 7 4 -0 -0 -0 1 -9 0 0 -2 -0 -5 -1 -6 -2 1 -1 0 -1
5 -3 8 8 -13 -11 -17 5 -4 -9 -15 -7 -7 -0 -6 -9 23 -14 10 -11 -9 5 5 -4 1 -6 0 -2 -3 -3 -2 -2 2 -1 -2 -4 -3 -1 -1 -2 1 0 -1 -1
-3 -2 0 2 3 -3 -2 7 9 6 1 2 3 -2 -4 1 1 3 7 -4 -1 3 7 -4 0 -7 -5 -4 -4 0 2 -2 3 -0 -4 -3 -2 -0 -0 -2 0 -0 -2 -1
-0 7 11 0 -2 3 -3 0 9 1 -1 -2 -0 -1 1 1 8 -0 6 5 -2 4 -1 -0 14 -8 -2 1 0 -0 1 -0 -0 -2 -4 -0 -0 2 -3 -0 1 0 -0 -0
-8 6 0 -5 -6 1 -1 -1 -4 -4 -6 -3 -0 -1 -1 1 -4 -3 -0 0 -9 1 11 -4 5 -5 -3 -3 -3 -2 -2 1 -2 -3 -1 -2 2 -1 -2 1 1 0 0 0
-4 12 -14 6 7 -2 0 0 -5 -6 -6 4 2 -0 -0 -1 2 -1 3 -3 14 -5 4 0 -4 -4 -1 -2 -2 -2 1 -2 -1 -1 -1 1 -0 -1 0 2 1 1 0 0
3 -4 -14 2 8 3 1 -1 -5 -2 -3 1 -5 -0 1 0 -1 -3 -0 5 -1 1 1 -3 -2 -1 0 -1 -0 -3 2 -2 1 2 -0 0 -0 -0 1 2 2 1 0 -0
8 -11 -4 -6 -5 -7 -9 -4 4 -1 -2 6 1 2 1 -1 -1 5 5 1 1 -0 -5 -4 -2 -1 -2 -0 0 1 0 0 2 1 -1 -0 1 2 1 1 0 1 0 -1
-7 -10 -10 -8 -10 -10 -4 -4 -7 -5 -2 -1 1 1 2 3 1 -3 -3 -3 -5 -5 -4 -3 -3 0 -2 2 3 4 1 -1 3 3 3 1 0 1 1 2 1 -1 0 -1
-1 -12 3 6 6 -3 -6 2 8 1 -4 -6 -2 2 3 0 -2 2 -2 -3 -2 -2 -1 -1 0 2 1 0 1 1 1 2 2 4 3 -0 1 1 0 2 0 -1 -1 -1
-2 -4 -1 1 4 0 -0 9 0 -1 -3 0 -0 -3 2 0 -2 -2 -1 -1 -2 -3 -2 -1 -2 -2 0 -0 2 5 3 4 4 4 1 0 1 2 1 2 1 -1 -0 -0
-6 -1 -8 -0 4 12 3 2 3 -2 -0 3 0 1 -1 -1 -1 -0 -0 -2 -1 0 0 1 0 1 2 2 2 2 3 4 4 2 1 1 1 1 1 3 2 -0 -1 0
-2 0 -1 -4 -3 2 6 1 1 1 1 -1 1 -1 -1 -0 -0 -0 -0 0 1 1 2 2 2 4 2 0 1 1 1 1 1 2 3 1 1 2 1 1 0 0 -1 -2
6 -1 -0 0 5 4 2 1 -1 -2 -1 -2 -1 0 -0 0 1 1 1 2 1 2 2 3 3 3 2 2 2 2 2 2 2 2 2 1 2 0 0 1 0 1 2 0
0 2 2 -1 0 -0 -1 -2 -2 -3 0 3 2 1 0 1 1 0 -0 -0 1 1 3 4 1 1 -1 -0 1 1 1 2 3 3 3 4 3 2 3 3 1 -0 1 2
-1 -2 -3 -2 -1 -2 -4 0 2 2 0 -1 -1 -0 -1 -1 -1 -1 -0 0 2 1 1 4 4 3 2 2 1 -1 0 1 0 -1 -1 0 2 2 1 2 3 2 -0 -2
-0 -0 -1 -1 -2 -1 2 2 1 0 0 -0 -1 -1 -1 -1 -1 -2 -3 -4 -4 -1 2 4 5 5 4 3 2 2 2 2 0 -0 2 2 1 1 2 1 -1 -1 0 1
-1 -0 0 -1 1 2 2 2 1 -0 0 -0 -1 -1 -2 -2 -1 -1 -1 -2 -4 -5 -2 1 2 4 5 5 4 2 2 2 0 0 1 2 1 1 1 1 0 2 2 0
2 0 -1 1 2 1 0 -0 -0 0 -0 -1 -1 -1 -1 -1 -1 -2 -2 -2 -2 -3 -4 -3 0 0 -0 0 1 2 2 2 3 3 2 2 2 1 1 3 2 1 1 1
0 0 1 2 1 -1 -1 -0 0 -0 -0 -1 -1 -1 -0 -1 -1 -1 -1 -2 -1 -1 -1 -3 -3 -1 -1 -2 -3 -1 1 1 3 1 0 0 2 2 2 1 1 -1 -0 0
0 0 0 0 0 1 0 -0 -0 -0 -0 -1 -0 -0 0 -1 -1 -1 -1 -3 -2 -2 -2 -1 -2 -1 -1 -1 1 1 -1 1 3 3 3 3 2 1 0 1 -0 1 1 0
-0 -0 0 0 1 0 -0 -0 -0 -0 -0 0 -0 -0 -0 -2 -2 -1 -2 -2 -2 -2 -1 -0 1 1 -0 -0 -0 -0 -0 0 1 1 0 0 0 1 1 1 1 1 0 -0
Height
5582 5585 5584 5582 5585 5588 5587 5587 5584 5597 5596 5602 5603 5604 5606 5608 5611 5614 5615 5618 5621 5620 5617 5617 5617 5616 5616 5616 5615 5613 5611 5610 5608 5605 5602 5598 5595 5593 5588 5582 5575 5570 5565 5559
5573 5572 5570 5572 5571 5572 5576 5577 5576 5581 5584 5589 5589 5588 5594 5596 5600 5603 5605 5607 5607 5607 5606 5606 5605 5604 5604 5603 5602 5598 5597 5596 5594 5593 5591 5587 5586 5584 5579 5572 5566 5561 5556 5552
5558 5559 5558 5563 5562 5559 5562 5565 5565 5568 5572 5575 5573 5576 5580 5584 5588 5591 5592 5592 5594 5598 5596 5595 5595 5594 5594 5592 5589 5586 5586 5585 5584 5582 5579 5577 5575 5573 5568 5563 5559 5553 5551 5547
5549 5549 5548 5557 5548 5548 5549 5554 5548 5554 5561 5564 5560 5560 5566 5572 5576 5580 5582 5581 5583 5587 5585 5581 5582 5585 5588 5584 5578 5576 5577 5576 5574 5571 5568 5566 5565 5562 5558 5555 5550 5547 5545 5542
5539 5539 5543 5546 5539 5539 5538 5541 5538 5546 5547 5549 5553 5550 5549 5556 5560 5567 5569 5570 5571 5573 5572 5572 5572 5573 5575 5572 5570 5564 5565 5565 5563 5560 5558 5558 5556 5552 5551 5548 5542 5542 5540 5537
5533 5533 5534 5532 5530 5530 5535 5535 5533 5536 5537 5537 5537 5540 5543 5544 5546 5552 5556 5556 5557 5559 5558 5560 5561 5562 5561 5559 5558 5554 5554 5555 5552 5550 5549 5549 5546 5544 5543 5539 5536 5536 5534 5532
5526 5524 5528 5524 5521 5524 5530 5531 5524 5526 5527 5531 5532 5532 5533 5538 5536 5539 5541 5545 5547 5547 5547 5549 5549 5550 5547 5546 5546 5545 5544 5543 5542 5541 5541 5539 5537 5536 5534 5531 5531 5530 5529 5528
5520 5518 5517 5518 5518 5521 5522 5520 5518 5518 5520 5521 5521 5522 5525 5528 5529 5530 5532 5533 5535 5536 5535 5535 5537 5537 5536 5535 5533 5533 5532 5533 5532 5533 5532 5530 5528 5527 5526 5525 5526 5525 5525 5525
5514 5513 5513 5512 5513 5514 5515 5515 5513 5512 5513 5514 5514 5515 5517 5517 5518 5519 5521 5522 5524 5524 5523 5523 5523 5524 5524 5522 5523 5524 5524 5524 5524 5523 5523 5521 5520 5519 5519 5520 5520 5520 5520 5521
5506 5509 5508 5508 5507 5508 5508 5508 5508 5507 5506 5507 5507 5507 5508 5508 5508 5509 5509 5511 5513 5512 5512 5513 5513 5513 5513 5514 5514 5515 5515 5515 5515 5514 5513 5512 5512 5512 5513 5514 5515 5515 5516 5516
5500 5501 5502 5502 5502 5501 5499 5498 5498 5498 5498 5497 5497 5498 5498 5499 5501 5502 5502 5502 5502 5504 5504 5503 5504 5504 5504 5504 5505 5505 5506 5506 5506 5505 5504 5504 5504 5505 5506 5508 5509 5509 5510 5510
5492 5492 5494 5496 5496 5494 5492 5490 5489 5489 5488 5487 5486 5488 5488 5489 5489 5489 5490 5491 5492 5493 5493 5493 5493 5493 5494 5494 5495 5496 5496 5496 5496 5496 5496 5496 5497 5498 5500 5501 5502 5503 5504 5504
5484 5484 5486 5486 5486 5486 5487 5486 5484 5482 5480 5479 5479 5480 5479 5479 5480 5481 5481 5482 5484 5484 5484 5483 5483 5483 5483 5484 5485 5485 5486 5486 5487 5488 5488 5489 5490 5491 5493 5495 5496 5497 5497 5497
5475 5475 5476 5475 5474 5474 5474 5472 5472 5472 5472 5473 5472 5473 5473 5473 5474 5475 5475 5475 5475 5475 5473 5472 5472 5472 5472 5473 5474 5475 5476 5477 5478 5480 5480 5481 5482 5484 5485 5487 5488 5489 5489 5489
5465 5463 5463 5461 5459 5459 5459 5458 5459 5461 5463 5464 5464 5463 5463 5464 5465 5465 5465 5465 5465 5464 5463 5461 5461 5462 5463 5464 5465 5466 5467 5468 5469 5471 5472 5473 5474 5476 5478 5480 5480 5480 5480 5480
5448 5447 5445 5445 5447 5450 5449 5450 5452 5453 5455 5456 5455 5455 5455 5456 5456 5456 5456 5455 5454 5453 5452 5452 5452 5453 5455 5455 5457 5458 5459 5460 5461 5462 5463 5465 5466 5468 5470 5471 5472 5472 5472 5471
5439 5438 5438 5439 5440 5442 5444 5444 5445 5446 5447 5448 5448 5448 5448 5447 5447 5447 5446 5445 5445 5444 5445 5445 5446 5447 5448 5448 5449 5450 5450 5451 5452 5453 5455 5457 5459 5460 5461 5462 5462 5462 5462 5461
5435 5435 5435 5435 5436 5438 5439 5439 5439 5440 5441 5441 5441 5440 5439 5439 5439 5439 5439 5438 5438 5438 5439 5440 5441 5441 5441 5441 5442 5442 5443 5443 5445 5446 5448 5449 5451 5452 5453 5453 5453 5452 5451 5450
5432 5432 5433 5433 5433 5433 5434 5434 5434 5435 5435 5434 5434 5434 5433 5432 5432 5432 5432 5432 5432 5432 5433 5434 5434 5435 5435 5435 5435 5436 5436 5437 5439 5440 5441 5442 5443 5444 5444 5443 5443 5442 5441 5440
5430 5430 5430 5430 5429 5429 5429 5429 5429 5430 5430 5430 5429 5428 5427 5426 5426 5425 5425 5424 5424 5425 5426 5427 5427 5427 5427 5428 5429 5429 5430 5431 5432 5433 5434 5435 5435 5435 5435 5435 5434 5433 5431 5430
5426 5426 5426 5425 5424 5424 5425 5427 5427 5427 5427 5427 5426 5425 5424 5423 5421 5420 5418 5416 5416 5416 5417 5418 5419 5419 5420 5420 5421 5422 5423 5424 5424 5425 5426 5426 5427 5427 5426 5425 5424 5423 5420 5418
5422 5421 5421 5421 5422 5423 5424 5425 5425 5425 5425 5425 5424 5423 5422 5420 5419 5417 5415 5412 5408 5406 5407 5409 5410 5410 5412 5413 5414 5414 5415 5416 5416 5417 5418 5418 5418 5417 5417 5415 5414 5412 5410 5408
5417 5418 5418 5419 5421 5422 5422 5423 5423 5423 5423 5422 5421 5420 5419 5417 5415 5414 5412 5409 5406 5402 5399 5400 5401 5402 5404 5405 5406 5407 5407 5408 5408 5409 5409 5409 5409 5408 5407 5406 5404 5403 5401 5398
5414 5415 5416 5417 5418 5419 5420 5420 5420 5420 5420 5419 5418 5417 5416 5414 5412 5410 5408 5405 5403 5399 5396 5393 5394 5396 5397 5398 5399 5399 5400 5401 5401 5401 5401 5401 5400 5399 5398 5397 5395 5393 5390 5387
5410 5411 5413 5414 5416 5416 5417 5417 5417 5417 5416 5415 5414 5413 5412 5410 5408 5406 5403 5401 5399 5397 5394 5391 5390 5390 5391 5392 5392 5393 5393 5393 5394 5394 5393 5393 5392 5391 5389 5387 5384 5382 5379 5376
5408 5409 5410 5412 5413 5413 5413 5413 5413 5412 5412 5411 5410 5408 5407 5406 5404 5402 5400 5398 5395 5393 5391 5389 5388 5386 5386 5386 5386 5386 5386 5386 5386 5385 5385 5384 5383 5381 5379 5377 5374 5371 5368 5365
5405 5406 5407 5408 5409 5409 5410 5409 5409 5408 5407 5406 5405 5404 5403 5402 5400 5398 5396 5394 5391 5389 5387 5385 5383 5382 5381 5380 5380 5379 5379 5379 5378 5377 5376 5375 5373 5371 5369 5366 5363 5360 5357 5354